Time,TemperatureF,DewpointF,PressureIn,WindDirection,WindDirectionDegrees,WindSpeedMPH,WindSpeedGustMPH,Humidity,HourlyPrecipIn,Conditions,Clouds,dailyrainin,SoftwareType,DateUTC
2013-06-25 00:02:00,58.0,58.0,29.73,SSE,155,12.0,24.0,100,0.01,,,0.40,,2013-06-25 07:02:00,
2013-06-25 00:11:00,58.0,58.0,29.73,SSE,167,17.0,32.0,100,0.01,,,0.37,,2013-06-25 07:11:00,
2013-06-25 00:22:00,58.0,58.0,29.73,SSE,167,17.0,32.0,100,0.01,,,0.37,,2013-06-25 07:22:00,
2013-06-25 00:33:00,58.0,58.0,29.73,South,187,16.0,31.0,100,0.01,,,0.37,,2013-06-25 07:33:00,
2013-06-25 00:43:00,58.0,58.0,29.73,SE,144,13.0,30.0,100,0.00,,,0.37,,2013-06-25 07:43:00,
2013-06-25 00:52:00,58.0,58.0,29.73,SSE,165,17.0,26.0,100,0.00,,,0.37,,2013-06-25 07:52:00,
2013-06-25 01:01:00,58.0,58.0,29.73,SSE,165,17.0,26.0,100,0.00,,,0.37,,2013-06-25 08:01:00,
2013-06-25 01:11:00,58.0,58.0,29.73,SSE,166,15.0,28.0,100,0.01,,,0.37,,2013-06-25 08:11:00,
2013-06-25 01:21:00,58.0,58.0,29.73,SSE,166,15.0,28.0,100,0.01,,,0.37,,2013-06-25 08:21:00,
2013-06-25 01:33:00,58.0,58.0,29.73,SSE,155,16.0,26.0,100,0.01,,,0.37,,2013-06-25 08:33:00,
2013-06-25 01:43:00,58.0,58.0,29.73,SSE,157,15.0,26.0,100,0.02,,,0.38,,2013-06-25 08:43:00,
2013-06-25 01:52:00,58.0,58.0,29.74,SSE,167,15.0,28.0,100,0.02,,,0.38,,2013-06-25 08:52:00,
2013-06-25 02:01:00,58.0,58.0,29.74,SSE,167,15.0,28.0,100,0.02,,,0.38,,2013-06-25 09:01:00,
2013-06-25 02:12:00,58.0,58.0,29.74,SSE,165,16.0,22.0,100,0.01,,,0.38,,2013-06-25 09:12:00,
2013-06-25 02:21:00,58.0,58.0,29.74,SSE,165,16.0,22.0,100,0.01,,,0.38,,2013-06-25 09:21:00,
2013-06-25 02:33:00,58.0,58.0,29.74,South,171,13.0,25.0,100,0.01,,,0.38,,2013-06-25 09:33:00,
2013-06-25 02:43:00,57.0,57.0,29.74,South,180,13.0,25.0,100,0.00,,,0.38,,2013-06-25 09:43:00,
2013-06-25 02:52:00,58.0,58.0,29.75,SSE,161,14.0,22.0,100,0.00,,,0.38,,2013-06-25 09:52:00,
2013-06-25 03:01:00,58.0,58.0,29.75,SSE,161,14.0,22.0,100,0.00,,,0.38,,2013-06-25 10:01:00,
2013-06-25 03:11:00,58.0,58.0,29.75,South,187,13.0,21.0,100,0.00,,,0.37,,2013-06-25 10:11:00,
2013-06-25 03:21:00,58.0,58.0,29.75,South,187,13.0,21.0,100,0.00,,,0.37,,2013-06-25 10:21:00,
2013-06-25 03:33:00,58.0,58.0,29.75,SE,144,7.0,24.0,100,0.01,,,0.38,,2013-06-25 10:33:00,
2013-06-25 03:42:00,58.0,58.0,29.75,SE,144,7.0,24.0,100,0.01,,,0.38,,2013-06-25 10:42:00,
2013-06-25 03:52:00,58.0,58.0,29.75,South,180,13.0,25.0,100,0.01,,,0.38,,2013-06-25 10:52:00,
2013-06-25 04:01:00,58.0,58.0,29.75,South,180,13.0,25.0,100,0.01,,,0.38,,2013-06-25 11:01:00,
2013-06-25 04:11:00,58.0,58.0,29.75,South,176,16.0,29.0,100,0.01,,,0.38,,2013-06-25 11:11:00,
2013-06-25 04:21:00,58.0,58.0,29.75,SSE,151,14.0,24.0,100,0.00,,,0.38,,2013-06-25 11:21:00,
2013-06-25 04:34:00,58.0,58.0,29.75,SSE,151,14.0,24.0,100,0.00,,,0.38,,2013-06-25 11:34:00,
2013-06-25 04:43:00,58.0,58.0,29.75,South,185,15.0,24.0,100,0.00,,,0.38,,2013-06-25 11:43:00,
2013-06-25 04:52:00,58.0,58.0,29.75,SSE,157,14.0,25.0,100,0.00,,,0.38,,2013-06-25 11:52:00,
2013-06-25 05:01:00,58.0,58.0,29.75,SSE,157,14.0,25.0,100,0.00,,,0.38,,2013-06-25 12:01:00,
2013-06-25 05:11:00,58.0,58.0,29.75,South,169,14.0,22.0,100,0.00,,,0.38,,2013-06-25 12:11:00,
2013-06-25 05:22:00,58.0,58.0,29.75,South,169,14.0,22.0,100,0.00,,,0.38,,2013-06-25 12:22:00,
2013-06-25 05:33:00,58.0,58.0,29.76,SSE,163,14.0,22.0,100,0.00,,,0.38,,2013-06-25 12:33:00,
2013-06-25 05:43:00,58.0,58.0,29.76,SE,135,9.0,21.0,100,0.00,,,0.38,,2013-06-25 12:43:00,
2013-06-25 05:55:00,58.0,58.0,29.76,SSE,148,10.0,19.0,100,0.00,,,0.38,,2013-06-25 12:55:00,
2013-06-25 06:01:00,58.0,58.0,29.76,SSE,148,10.0,19.0,100,0.00,,,0.38,,2013-06-25 13:01:00,
2013-06-25 06:34:00,57.0,57.0,29.77,SSE,157,10.0,13.0,100,0.00,,,0.36,,2013-06-25 13:34:00,
2013-06-25 06:42:00,57.0,57.0,29.76,SE,138,6.0,10.0,100,0.00,,,0.36,,2013-06-25 13:42:00,
2013-06-25 06:53:00,57.0,57.0,29.76,SE,144,4.0,7.0,100,0.00,,,0.36,,2013-06-25 13:53:00,
2013-06-25 07:01:00,57.0,57.0,29.76,SE,144,4.0,7.0,100,0.00,,,0.36,,2013-06-25 14:01:00,
2013-06-25 07:22:00,57.0,57.0,29.76,SSE,148,6.0,10.0,100,0.00,,,0.30,,2013-06-25 14:22:00,
2013-06-25 07:34:00,57.0,57.0,29.76,SE,145,5.0,9.0,100,0.00,,,0.30,,2013-06-25 14:34:00,
2013-06-25 07:42:00,58.0,58.0,29.76,SE,139,6.0,10.0,100,0.00,,,0.30,,2013-06-25 14:42:00,
2013-06-25 07:53:00,58.0,58.0,29.76,SE,136,6.0,10.0,100,0.00,,,0.30,,2013-06-25 14:53:00,
2013-06-25 08:01:00,58.0,58.0,29.76,SE,136,6.0,10.0,100,0.00,,,0.30,,2013-06-25 15:01:00,
2013-06-25 08:11:00,58.0,58.0,29.76,ESE,121,4.0,7.0,100,0.00,,,0.30,,2013-06-25 15:11:00,
2013-06-25 08:22:00,58.0,58.0,29.76,ESE,121,4.0,7.0,100,0.00,,,0.30,,2013-06-25 15:22:00,
2013-06-25 08:32:00,58.0,58.0,29.76,ESE,111,4.0,7.0,100,0.00,,,0.30,,2013-06-25 15:32:00,
2013-06-25 08:44:00,58.0,58.0,29.76,SE,128,4.0,6.0,100,0.00,,,0.30,,2013-06-25 15:44:00,
2013-06-25 08:53:00,58.0,58.0,29.77,SSE,163,3.0,7.0,100,0.01,,,0.31,,2013-06-25 15:53:00,
2013-06-25 09:03:00,58.0,58.0,29.77,SSE,163,3.0,7.0,100,0.01,,,0.31,,2013-06-25 16:03:00,
2013-06-25 09:12:00,58.0,58.0,29.77,ESE,119,3.0,5.0,100,0.01,,,0.23,,2013-06-25 16:12:00,
2013-06-25 09:34:00,59.0,59.0,29.77,ENE,78,2.0,6.0,100,0.02,,,0.24,,2013-06-25 16:34:00,
2013-06-25 09:44:00,59.0,59.0,29.77,East,92,3.0,4.0,100,0.02,,,0.24,,2013-06-25 16:44:00,
2013-06-25 09:52:00,60.0,60.0,29.77,East,90,3.0,6.0,100,0.01,,,0.24,,2013-06-25 16:52:00,
2013-06-25 10:01:00,60.0,60.0,29.77,East,90,3.0,6.0,100,0.01,,,0.24,,2013-06-25 17:01:00,
2013-06-25 10:11:00,60.0,60.0,29.77,ENE,76,3.0,7.0,100,0.01,,,0.17,,2013-06-25 17:11:00,
2013-06-25 10:22:00,60.0,60.0,29.77,ENE,76,3.0,7.0,100,0.01,,,0.17,,2013-06-25 17:22:00,
2013-06-25 10:33:00,60.0,60.0,29.77,SE,131,2.0,7.0,100,0.00,,,0.17,,2013-06-25 17:33:00,
2013-06-25 10:44:00,60.0,60.0,29.78,SSE,150,3.0,6.0,100,0.00,,,0.17,,2013-06-25 17:44:00,
2013-06-25 10:53:00,60.0,60.0,29.78,SSE,150,3.0,6.0,100,0.00,,,0.17,,2013-06-25 17:53:00,
2013-06-25 11:02:00,60.0,60.0,29.78,East,92,3.0,6.0,100,0.01,,,0.18,,2013-06-25 18:02:00,
2013-06-25 11:12:00,60.0,60.0,29.78,SE,143,4.0,6.0,100,0.03,,,0.20,,2013-06-25 18:12:00,
2013-06-25 11:34:00,60.0,60.0,29.78,SE,146,3.0,6.0,100,0.06,,,0.23,,2013-06-25 18:34:00,
2013-06-25 11:44:00,60.0,60.0,29.79,ESE,115,2.0,5.0,100,0.08,,,0.25,,2013-06-25 18:44:00,
2013-06-25 11:52:00,60.0,60.0,29.79,South,169,3.0,6.0,100,0.09,,,0.27,,2013-06-25 18:52:00,
2013-06-25 12:01:00,60.0,60.0,29.79,South,169,3.0,6.0,100,0.09,,,0.27,,2013-06-25 19:01:00,
2013-06-25 12:11:00,59.0,59.0,29.79,SSE,165,11.0,19.0,100,0.10,,,0.29,,2013-06-25 19:11:00,
2013-06-25 12:22:00,59.0,59.0,29.79,SSE,165,11.0,19.0,100,0.10,,,0.29,,2013-06-25 19:22:00,
2013-06-25 12:33:00,59.0,59.0,29.80,SSE,167,15.0,24.0,100,0.07,,,0.30,,2013-06-25 19:33:00,
2013-06-25 12:44:00,59.0,59.0,29.80,SSE,159,14.0,25.0,100,0.06,,,0.31,,2013-06-25 19:44:00,
2013-06-25 12:53:00,60.0,60.0,29.82,SSE,164,15.0,23.0,100,0.04,,,0.31,,2013-06-25 19:53:00,
2013-06-25 13:01:00,60.0,60.0,29.82,SSE,164,15.0,23.0,100,0.04,,,0.31,,2013-06-25 20:01:00,
2013-06-25 13:21:00,60.0,60.0,29.82,South,173,16.0,25.0,100,0.01,,,0.31,,2013-06-25 20:21:00,
2013-06-25 13:33:00,60.0,60.0,29.82,South,173,16.0,25.0,100,0.01,,,0.31,,2013-06-25 20:33:00,
2013-06-25 13:42:00,60.0,60.0,29.83,SSE,157,15.0,22.0,100,0.00,,,0.31,,2013-06-25 20:42:00,
2013-06-25 13:52:00,60.0,60.0,29.83,SSE,157,15.0,22.0,100,0.00,,,0.31,,2013-06-25 20:52:00,
2013-06-25 14:01:00,61.0,61.0,29.83,SSE,148,19.0,26.0,100,0.00,,,0.31,,2013-06-25 21:01:00,
2013-06-25 14:11:00,61.0,61.0,29.83,SSE,161,17.0,29.0,100,0.00,,,0.31,,2013-06-25 21:11:00,
2013-06-25 14:22:00,61.0,61.0,29.84,South,180,17.0,31.0,100,0.00,,,0.31,,2013-06-25 21:22:00,
2013-06-25 14:33:00,61.0,61.0,29.84,South,180,17.0,31.0,100,0.00,,,0.31,,2013-06-25 21:33:00,
2013-06-25 14:43:00,61.0,61.0,29.85,SSE,161,18.0,29.0,100,0.00,,,0.31,,2013-06-25 21:43:00,
2013-06-25 14:53:00,62.0,62.0,29.85,South,175,16.0,26.0,100,0.00,,,0.31,,2013-06-25 21:53:00,
2013-06-25 15:01:00,62.0,62.0,29.85,South,175,16.0,26.0,100,0.00,,,0.31,,2013-06-25 22:01:00,
2013-06-25 15:11:00,62.0,62.0,29.85,SSW,192,13.0,26.0,100,0.00,,,0.31,,2013-06-25 22:11:00,
2013-06-25 15:22:00,62.0,62.0,29.85,SSE,152,17.0,27.0,100,0.00,,,0.31,,2013-06-25 22:22:00,
2013-06-25 15:33:00,62.0,62.0,29.85,SSE,152,17.0,27.0,100,0.00,,,0.31,,2013-06-25 22:33:00,
2013-06-25 15:42:00,62.0,62.0,29.86,SSE,153,14.0,24.0,100,0.00,,,0.31,,2013-06-25 22:42:00,
2013-06-25 15:52:00,62.0,62.0,29.86,SSE,167,15.0,26.0,100,0.00,,,0.31,,2013-06-25 22:52:00,
2013-06-25 16:01:00,62.0,62.0,29.86,SSE,167,15.0,26.0,100,0.00,,,0.31,,2013-06-25 23:01:00,
2013-06-25 16:11:00,61.0,61.0,29.87,South,191,15.0,26.0,100,0.00,,,0.31,,2013-06-25 23:11:00,
2013-06-25 16:34:00,61.0,61.0,29.87,SSW,197,16.0,27.0,100,0.00,,,0.31,,2013-06-25 23:34:00,
2013-06-25 16:43:00,61.0,61.0,29.88,SSW,192,14.0,26.0,100,0.00,,,0.31,,2013-06-25 23:43:00,
2013-06-25 16:52:00,61.0,61.0,29.88,South,186,14.0,26.0,100,0.00,,,0.31,,2013-06-25 23:52:00,
2013-06-25 17:01:00,61.0,61.0,29.88,South,186,14.0,26.0,100,0.00,,,0.31,,2013-06-26 00:01:00,
2013-06-25 18:32:00,61.0,61.0,29.88,SSE,168,14.0,24.0,100,0.00,,,0.31,,2013-06-26 01:32:00,
2013-06-25 18:43:00,61.0,61.0,29.88,South,180,11.0,23.0,100,0.00,,,0.31,,2013-06-26 01:43:00,
2013-06-25 18:52:00,61.0,61.0,29.88,South,169,16.0,20.0,100,0.00,,,0.31,,2013-06-26 01:52:00,
2013-06-25 19:01:00,62.0,62.0,29.88,SSE,150,9.0,19.0,100,0.00,,,0.30,,2013-06-26 02:01:00,
2013-06-25 19:11:00,62.0,62.0,29.88,SSE,150,9.0,19.0,100,0.00,,,0.30,,2013-06-26 02:11:00,
2013-06-25 19:34:00,61.0,61.0,29.88,SSE,168,13.0,21.0,100,0.00,,,0.30,,2013-06-26 02:34:00,
2013-06-25 19:43:00,60.0,60.0,29.88,SSE,163,15.0,24.0,100,0.00,,,0.30,,2013-06-26 02:43:00,
2013-06-25 19:53:00,60.0,60.0,29.89,South,178,11.0,21.0,100,0.00,,,0.30,,2013-06-26 02:53:00,
2013-06-25 20:02:00,60.0,60.0,29.89,South,178,11.0,21.0,100,0.00,,,0.30,,2013-06-26 03:02:00,
2013-06-25 20:11:00,60.0,60.0,29.88,SSE,159,12.0,22.0,100,0.00,,,0.29,,2013-06-26 03:11:00,
2013-06-25 20:22:00,60.0,60.0,29.89,SSE,150,14.0,22.0,100,0.00,,,0.29,,2013-06-26 03:22:00,
2013-06-25 20:33:00,60.0,60.0,29.89,SSE,150,14.0,22.0,100,0.00,,,0.29,,2013-06-26 03:33:00,
2013-06-25 20:43:00,59.0,59.0,29.88,SSE,155,11.0,16.0,100,0.00,,,0.29,,2013-06-26 03:43:00,
2013-06-25 20:52:00,60.0,60.0,29.88,SSE,159,10.0,17.0,100,0.00,,,0.29,,2013-06-26 03:52:00,
2013-06-25 21:01:00,60.0,60.0,29.88,SSE,159,10.0,17.0,100,0.00,,,0.29,,2013-06-26 04:01:00,
2013-06-25 21:12:00,60.0,60.0,29.89,SSE,155,11.0,21.0,100,0.01,,,0.29,,2013-06-26 04:12:00,
2013-06-25 21:21:00,60.0,60.0,29.89,SSE,155,11.0,21.0,100,0.01,,,0.29,,2013-06-26 04:21:00,
2013-06-25 21:33:00,59.0,59.0,29.88,South,177,13.0,24.0,100,0.02,,,0.30,,2013-06-26 04:33:00,
2013-06-25 21:43:00,59.0,59.0,29.89,SE,142,9.0,18.0,100,0.02,,,0.30,,2013-06-26 04:43:00,
2013-06-25 21:53:00,59.0,59.0,29.90,South,170,11.0,17.0,100,0.02,,,0.30,,2013-06-26 04:53:00,
2013-06-25 22:02:00,59.0,59.0,29.90,South,170,11.0,17.0,100,0.02,,,0.30,,2013-06-26 05:02:00,
2013-06-25 22:11:00,59.0,59.0,29.90,SSE,159,16.0,22.0,100,0.01,,,0.27,,2013-06-26 05:11:00,
2013-06-25 22:21:00,59.0,59.0,29.90,South,169,11.0,19.0,100,0.00,,,0.27,,2013-06-26 05:21:00,
2013-06-25 22:33:00,59.0,59.0,29.90,South,169,11.0,19.0,100,0.00,,,0.27,,2013-06-26 05:33:00,
2013-06-25 22:43:00,59.0,59.0,29.90,SSE,158,12.0,17.0,100,0.00,,,0.27,,2013-06-26 05:43:00,
2013-06-25 22:52:00,59.0,59.0,29.90,SE,137,9.0,15.0,100,0.00,,,0.27,,2013-06-26 05:52:00,
2013-06-25 23:01:00,59.0,59.0,29.90,SE,137,9.0,15.0,100,0.00,,,0.27,,2013-06-26 06:01:00,
2013-06-25 23:11:00,59.0,59.0,29.91,SSE,150,6.0,12.0,100,0.01,,,0.23,,2013-06-26 06:11:00,
2013-06-25 23:22:00,59.0,59.0,29.90,SE,126,6.0,15.0,100,0.03,,,0.25,,2013-06-26 06:22:00,
2013-06-25 23:34:00,59.0,59.0,29.90,SE,126,6.0,15.0,100,0.03,,,0.25,,2013-06-26 06:34:00,
2013-06-25 23:43:00,59.0,59.0,29.90,SSE,150,4.0,7.0,100,0.03,,,0.25,,2013-06-26 06:43:00,
2013-06-25 23:53:00,59.0,59.0,29.91,SSE,162,7.0,10.0,100,0.03,,,0.25,,2013-06-26 06:53:00,